Location: Cheb
(50.0670°N, 12.3670°E)
Time: 22:02:23
(UTC+02:00)

ISS - Pass Details

Date: 01 April 2019
Orbit: 408 x 410 km, 51.6° (Epoch: 24 April)

Event Time Altitude Azimuth Distance (km) Brightness Sun altitude
Rises 21:45:57 0° 287° (WNW) 2,339 1.4 -19.3°
Reaches altitude 10° 21:48:04 10° 284° (WNW) 1,475 0.0 -19.6°
Enters shadow 21:51:09 59° 222° (SW) 476 -3.6 -20.0°
